Location: Newark
(39.9581°N, 97.2014°W)
Time: 19:44:22
(UTC+00:00)

Vanguard 1 Rocket - Visible Passes

Search period start: 16 February 2020 00:00
Search period end: 26 February 2020 00:00
Orbit: 650 x 4226 km, 34.3° (Epoch: 16 February)

Date Brightness Start Highest point End Pass type
(mag) Time Alt. Az. Time Alt. Az. Time Alt. Az.
16 Feb 9.3 10:13:43 15° ESE 10:13:43 15° ESE 10:14:35 10° ESE visible
16 Feb 7.5 12:31:00 10° WSW 12:35:09 43° S 12:39:47 10° ESE visible
17 Feb 7.5 11:23:49 36° SSW 11:24:33 39° S 11:28:41 10° ESE visible
18 Feb 9.1 10:16:38 18° ESE 10:16:38 18° ESE 10:17:55 10° ESE visible
18 Feb 7.6 12:34:00 10° WSW 12:38:12 41° S 12:42:42 10° ESE visible
19 Feb 7.4 11:26:43 38° SSW 11:27:36 43° S 11:31:46 10° ESE visible
20 Feb 8.9 10:19:30 21° ESE 10:19:30 21° ESE 10:21:08 10° ESE visible
20 Feb 7.7 12:37:06 10° WSW 12:41:14 36° S 12:45:34 10° ESE visible
21 Feb 7.4 11:29:34 36° SW 11:30:39 43° S 11:34:49 10° ESE visible
22 Feb 8.7 10:22:21 25° ESE 10:22:21 25° ESE 10:24:19 10° ESE visible
22 Feb 7.9 12:40:16 10° WSW 12:44:15 30° SSW 12:48:19 10° SE visible
23 Feb 7.4 11:32:24 33° SW 11:33:42 40° S 11:37:49 10° ESE visible
24 Feb 8.5 10:25:11 28° SE 10:25:11 28° SE 10:27:26 10° ESE visible
25 Feb 7.6 11:35:15 29° SW 11:36:42 36° SSW 11:40:44 10° SE visible
